Time[GMT],significant_wave_height[m](0m),dominant_wave_period[s](0m),max_wave_height[m](0m),mean_wave_direction[degrees](0m),mean_wave_direction_spread[degrees](0m)
2017-04-21 14:00, 0.86,5.0,1.41,94.40,33.00
2017-04-21 15:00, 0.83,4.4,1.30,94.40,34.00
2017-04-21 16:00, 0.89,5.1,1.22,98.40,33.00
2017-04-21 17:00, 0.84,4.5,1.13,100.40,34.00
2017-04-21 18:00, 0.92,4.8,1.44,98.40,32.00
2017-04-21 19:00, 0.91,4.8,1.59,96.40,37.00
2017-04-21 20:00, 0.94,4.3,1.25,99.40,36.00
2017-04-21 21:00, 0.88,,1.67,92.40,40.00
2017-04-21 22:00, 0.91,5.0,1.42,98.40,34.00
2017-04-21 23:00, 0.83,5.0,1.52,96.40,36.00
2017-04-22 00:00, 0.89,4.9,1.32,96.40,34.00
2017-04-22 01:00, 0.86,5.1,1.50,94.40,33.00
2017-04-22 02:00, 0.86,4.9,1.23,98.40,35.00
2017-04-22 03:00, 0.88,5.0,1.38,100.40,33.00
2017-04-22 04:00, 0.91,4.9,1.49,100.40,32.00
2017-04-22 05:00, 0.91,4.9,1.63,100.40,31.00
2017-04-22 06:00, 0.92,4.5,1.49,99.40,34.00
2017-04-22 07:00, 0.85,4.7,1.51,104.40,35.00
2017-04-22 08:00, 0.88,4.7,1.68,103.40,33.00
2017-04-22 09:00, 0.83,4.8,1.31,108.40,32.00
2017-04-22 10:00, 0.78,5.0,1.24,107.40,35.00
2017-04-22 11:00, 0.83,4.8,1.50,102.40,34.00
2017-04-22 12:00, 0.84,5.0,1.35,103.40,33.00
2017-04-22 13:00, 0.91,4.8,1.50,101.40,32.00
2017-04-22 14:00, 0.82,4.9,1.61,104.40,33.00
2017-04-22 15:00, 0.80,4.3,1.41,99.40,36.00
2017-04-22 16:00, 0.83,5.4,1.27,104.40,34.00
2017-04-22 17:00, 0.85,5.0,1.49,105.40,34.00
2017-04-22 18:00, 0.90,4.7,1.50,102.40,34.00
2017-04-22 19:00, 0.91,5.1,1.30,107.40,33.00
2017-04-22 20:00, 0.84,4.8,1.39,106.40,35.00
2017-04-22 21:00, 0.86,,1.39,101.40,39.00
2017-04-22 22:00, 0.87,4.5,1.79,104.40,37.00
2017-04-22 23:00, 0.87,5.1,1.52,103.40,37.00
2017-04-23 00:00, 0.87,4.8,1.52,101.40,36.00
2017-04-23 01:00, 0.94,5.3,2.04,103.40,33.00
2017-04-23 02:00, 0.93,4.7,1.67,102.40,33.00
2017-04-23 03:00, 1.00,4.9,1.72,102.40,32.00
2017-04-23 04:00, 1.03,5.3,1.73,102.40,33.00
2017-04-23 05:00, 1.06,5.6,1.68,104.40,34.00
2017-04-23 06:00, 1.06,5.3,1.70,109.40,35.00
2017-04-23 07:00, 1.15,5.6,1.98,108.40,35.00
2017-04-23 08:00, 1.18,5.3,2.11,109.40,34.00
2017-04-23 09:00, 1.19,5.3,2.05,109.40,37.00
2017-04-23 10:00, 1.24,5.6,1.99,109.40,35.00
2017-04-23 11:00, 1.21,5.6,2.11,109.40,34.00
2017-04-23 12:00, 1.20,5.7,2.07,109.40,35.00
2017-04-23 13:00, 1.23,5.9,2.16,108.40,32.00
2017-04-23 14:00, 1.29,5.7,2.18,113.40,31.00
2017-04-23 15:00, 1.30,5.7,2.39,105.40,35.00
2017-04-23 16:00, 1.19,5.7,2.15,110.40,34.00
2017-04-23 17:00, 1.32,5.7,1.92,110.40,34.00
2017-04-23 18:00, 1.23,6.3,2.10,114.40,33.00
2017-04-23 19:00, 1.28,5.7,1.96,111.40,33.00
2017-04-23 20:00, 1.28,5.7,2.48,108.40,34.00
2017-04-23 21:00, 1.43,5.7,2.46,111.40,32.00
2017-04-23 22:00, 1.30,5.7,2.25,110.40,32.00
2017-04-23 23:00, 1.49,6.1,2.33,108.40,31.00
2017-04-24 00:00, 1.60,6.3,2.89,107.40,32.00
2017-04-24 01:00, 1.43,6.5,2.33,103.40,33.00
2017-04-24 02:00, 1.52,6.1,2.54,103.40,32.00
2017-04-24 03:00, 1.59,6.3,2.42,101.40,33.00
2017-04-24 04:00, 1.41,6.5,2.28,107.40,35.00
2017-04-24 05:00, 1.46,6.5,2.39,106.40,34.00
2017-04-24 06:00, 1.75,6.3,2.75,104.40,29.00
2017-04-24 07:00, 1.55,6.3,2.54,109.40,34.00
2017-04-24 08:00, 1.79,6.3,2.77,107.40,32.00
2017-04-24 09:00, 1.63,6.5,2.86,109.40,31.00
2017-04-24 10:00, 1.64,6.7,2.81,109.40,32.00
2017-04-24 11:00, 1.58,6.7,3.29,114.40,31.00
2017-04-24 12:00, 1.66,6.1,2.76,111.40,30.00
2017-04-24 13:00, 1.64,6.3,2.66,110.40,31.00
2017-04-24 14:00, 1.42,6.1,2.62,110.40,32.00
2017-04-24 15:00, 1.41,6.1,2.09,113.40,36.00
2017-04-24 16:00, 1.42,5.9,2.90,107.40,32.00
2017-04-24 17:00, 1.43,6.1,2.31,113.40,33.00
2017-04-24 18:00, 1.38,5.9,2.12,105.40,33.00
2017-04-24 19:00, 1.39,6.5,2.29,107.40,32.00
2017-04-24 20:00, 1.35,6.1,2.10,102.40,37.00
2017-04-24 21:00, 1.52,6.3,3.26,108.40,31.00
2017-04-24 22:00, 1.35,6.1,2.34,105.40,33.00
2017-04-24 23:00, 1.40,6.3,2.26,111.40,34.00
2017-04-25 00:00, 1.47,6.1,2.23,109.40,34.00
2017-04-25 01:00, 1.44,6.3,2.21,109.40,37.00
2017-04-25 02:00, 1.36,6.1,2.19,106.40,34.00
2017-04-25 03:00, 1.42,6.3,2.07,107.40,33.00
2017-04-25 04:00, 1.39,6.3,2.48,108.40,32.00
2017-04-25 05:00, 1.31,6.1,1.98,109.40,34.00
2017-04-25 06:00, 1.33,5.9,1.99,106.40,33.00
2017-04-25 07:00, 1.50,6.3,2.37,106.40,29.00
2017-04-25 08:00, 1.40,6.5,2.00,107.40,34.00
2017-04-25 09:00, 1.20,5.9,2.62,104.40,37.00
2017-04-25 10:00, 1.24,6.3,1.84,113.40,37.00
2017-04-25 11:00, 1.39,6.3,2.14,108.40,33.00
2017-04-25 12:00, 1.37,6.1,2.25,108.40,34.00
2017-04-25 13:00, 1.37,6.5,2.01,108.40,34.00
2017-04-25 14:00, 1.33,6.3,2.10,109.40,34.00
2017-04-25 15:00, 1.36,6.1,2.15,109.40,35.00
2017-04-25 16:00, 1.26,6.5,2.26,111.40,33.00
2017-04-25 17:00, 1.27,6.7,1.98,108.40,34.00
2017-04-25 18:00, 1.39,6.3,2.17,107.40,36.00
2017-04-25 19:00, 1.44,6.3,2.44,108.40,33.00
2017-04-25 20:00, 1.36,6.5,1.97,110.40,35.00
2017-04-25 21:00, 1.25,6.3,2.43,113.40,33.00
2017-04-25 22:00, 1.27,6.5,1.97,113.40,35.00
2017-04-25 23:00, 1.21,6.3,1.86,113.40,35.00
2017-04-26 00:00, 1.25,6.5,2.16,113.40,33.00
2017-04-26 01:00, 1.17,6.5,2.07,114.40,34.00
2017-04-26 02:00, 1.04,6.7,1.68,113.40,35.00
2017-04-26 03:00, 1.17,6.7,1.92,110.40,33.00
2017-04-26 04:00, 1.24,6.3,1.97,109.40,34.00
2017-04-26 05:00, 1.19,6.5,2.15,108.40,36.00
2017-04-26 06:00, 1.19,6.3,1.75,114.40,35.00
2017-04-26 07:00, 1.06,6.3,1.68,109.40,35.00
2017-04-26 08:00, 1.23,6.1,2.02,112.40,32.00
2017-04-26 09:00, 1.15,6.3,1.88,110.40,37.00
2017-04-26 10:00, 1.18,5.9,2.05,114.40,34.00
2017-04-26 11:00, 1.21,6.5,1.81,114.40,35.00
2017-04-26 12:00, 1.13,6.1,1.98,116.40,35.00
2017-04-26 13:00, 1.16,5.7,1.72,119.40,35.00
2017-04-26 14:00, 1.13,5.7,1.87,116.40,37.00
2017-04-26 15:00, 1.21,5.6,1.97,116.40,32.00
2017-04-26 16:00, 1.09,5.7,1.71,117.40,33.00
2017-04-26 17:00, 0.99,5.7,1.84,115.40,37.00
2017-04-26 18:00, 1.11,6.1,1.99,112.40,34.00
2017-04-26 19:00, 1.15,6.1,2.08,110.40,33.00
2017-04-26 20:00, 1.11,5.7,1.67,114.40,34.00
2017-04-26 21:00, 1.09,6.1,1.84,110.40,32.00
2017-04-26 22:00, 1.06,5.6,1.80,113.40,33.00
2017-04-26 23:00, 0.99,5.3,1.52,109.40,36.00
2017-04-27 00:00, 0.98,6.1,2.22,111.40,34.00
2017-04-27 01:00, 1.03,6.1,1.92,109.40,33.00
2017-04-27 02:00, 1.04,5.7,1.86,117.40,31.00
2017-04-27 03:00, 1.00,5.4,1.52,106.40,33.00
2017-04-27 04:00, 1.05,5.6,1.74,107.40,32.00
2017-04-27 05:00, 1.03,5.7,1.52,108.40,35.00
2017-04-27 06:00, 1.08,5.6,1.72,106.40,34.00
2017-04-27 07:00, 1.07,5.7,1.79,106.40,35.00
2017-04-27 08:00, 1.03,5.1,1.50,102.40,35.00
2017-04-27 09:00, 1.07,5.7,1.66,104.40,33.00
2017-04-27 10:00, 1.09,4.5,1.69,104.40,33.00
2017-04-27 11:00, 1.17,5.1,2.09,103.40,32.00
2017-04-27 12:00, 1.10,5.3,1.91,109.40,34.00
2017-04-27 13:00, 1.08,5.4,2.06,104.40,34.00
2017-04-27 14:00, 1.12,5.7,2.05,108.40,32.00
2017-04-27 15:00, 1.13,5.7,1.82,112.40,32.00
2017-04-27 16:00, 1.12,5.7,1.82,109.40,33.00
2017-04-27 17:00, 1.05,6.1,1.80,108.40,32.00
2017-04-27 18:00, 1.03,5.7,1.72,107.40,37.00
2017-04-27 19:00, 1.04,5.7,1.50,109.40,35.00
2017-04-27 20:00, 1.12,5.6,1.86,103.40,33.00
2017-04-27 21:00, 1.08,5.7,1.69,100.40,34.00
2017-04-27 22:00, 1.03,5.6,1.54,102.40,35.00
2017-04-27 23:00, 1.07,5.7,1.59,102.40,34.00
2017-04-28 00:00, 1.21,5.7,2.03,98.40,30.00
2017-04-28 01:00, 1.16,5.1,2.05,99.40,34.00
2017-04-28 02:00, 1.16,5.7,1.68,99.40,33.00
2017-04-28 03:00, 1.39,5.6,1.89,99.40,28.00
2017-04-28 04:00, 1.27,5.4,2.01,100.40,30.00
2017-04-28 05:00, 1.33,6.3,2.16,100.40,31.00
2017-04-28 06:00, 1.28,6.1,2.57,103.40,32.00
2017-04-28 07:00, 1.33,5.6,2.20,104.40,30.00
2017-04-28 08:00, 1.27,5.9,2.26,101.40,31.00
2017-04-28 09:00, 1.29,6.1,1.97,103.40,31.00
2017-04-28 10:00, 1.34,6.3,2.14,98.40,28.00
2017-04-28 11:00, 1.45,6.3,2.80,105.40,30.00
2017-04-28 12:00, 1.36,5.7,2.14,103.40,31.00
2017-04-28 13:00, 1.30,6.1,2.09,104.40,31.00
2017-04-28 14:00, 1.31,6.1,2.09,108.40,31.00
2017-04-28 15:00, 1.34,5.9,2.13,108.40,30.00
2017-04-28 16:00, 1.35,6.5,2.21,108.40,32.00
2017-04-28 17:00, 1.51,6.3,2.35,119.40,30.00
2017-04-28 18:00, 1.37,6.3,2.59,114.40,34.00
2017-04-28 19:00, 1.26,6.3,2.33,111.40,33.00
2017-04-28 20:00, 1.22,5.9,2.11,106.40,34.00
2017-04-28 21:00, 1.24,6.1,2.14,108.40,34.00
2017-04-28 22:00, 1.28,6.3,2.80,105.40,35.00
2017-04-28 23:00, 1.30,6.7,2.13,101.40,32.00
2017-04-29 00:00, 1.36,5.7,2.24,101.40,32.00
2017-04-29 01:00, 1.28,6.3,2.13,107.40,32.00
2017-04-29 02:00, 1.44,6.5,2.28,109.40,30.00
2017-04-29 03:00, 1.37,6.1,2.16,106.40,33.00
2017-04-29 04:00, 1.46,6.1,2.31,105.40,32.00
2017-04-29 05:00, 1.50,6.3,2.83,103.40,30.00
2017-04-29 06:00, 1.42,6.3,2.29,104.40,32.00
2017-04-29 07:00, 1.46,6.5,2.23,100.40,31.00
2017-04-29 08:00, 1.44,5.9,2.18,101.40,33.00
2017-04-29 09:00, 1.54,6.3,2.26,99.40,30.00
2017-04-29 10:00, 1.53,6.1,2.69,99.40,30.00
2017-04-29 11:00, 1.54,5.9,2.30,99.40,31.00
2017-04-29 12:00, 1.59,5.6,3.09,102.40,30.00
2017-04-29 13:00, 1.51,5.6,2.65,102.40,30.00
2017-04-29 14:00, 1.47,5.7,2.21,99.40,34.00
2017-04-29 15:00, 1.47,5.9,2.38,100.40,33.00
2017-04-29 16:00, 1.54,5.9,2.15,100.40,30.00
2017-04-29 17:00, 1.50,5.9,2.56,101.40,31.00
2017-04-29 18:00, 1.52,6.1,2.78,102.40,30.00
2017-04-29 19:00, 1.53,6.9,2.67,99.40,29.00
2017-04-29 20:00, 1.46,6.5,2.13,100.40,30.00
2017-04-29 21:00, 1.50,6.5,2.23,102.40,32.00
2017-04-29 22:00, 1.51,6.3,2.37,99.40,30.00
2017-04-29 23:00, 1.44,6.7,2.53,101.40,32.00
2017-04-30 00:00, 1.38,7.1,2.27,101.40,32.00
2017-04-30 01:00, 1.38,5.9,2.42,102.40,31.00
2017-04-30 02:00, 1.42,5.7,2.43,102.40,31.00
2017-04-30 03:00, 1.41,5.6,2.37,97.40,32.00
2017-04-30 04:00, 1.44,6.3,2.32,100.40,32.00
2017-04-30 05:00, 1.35,5.9,2.13,103.40,30.00
2017-04-30 06:00, 1.54,5.9,2.67,101.40,30.00
2017-04-30 07:00, 1.44,6.1,2.18,101.40,31.00
2017-04-30 08:00, 1.52,6.3,2.43,98.40,30.00
2017-04-30 09:00, 1.31,6.9,2.29,99.40,35.00
2017-04-30 10:00, 1.46,7.4,2.18,98.40,31.00
2017-04-30 11:00, 1.44,5.7,2.73,96.40,30.00
2017-04-30 12:00, 1.54,6.7,2.45,98.40,30.00
2017-04-30 13:00, 1.57,5.4,2.61,98.40,31.00
2017-04-30 14:00, 1.59,5.9,3.12,97.40,31.00
2017-04-30 15:00, 1.58,7.1,2.34,97.40,33.00
2017-04-30 16:00, 1.44,6.1,2.37,101.40,34.00
2017-04-30 17:00, 1.58,6.1,2.61,102.40,32.00
2017-04-30 18:00, 1.51,5.7,2.43,106.40,34.00
2017-04-30 19:00, 1.36,6.3,2.09,104.40,32.00
2017-04-30 20:00, 1.40,6.5,2.01,102.40,32.00
2017-04-30 21:00, 1.37,7.7,2.38,99.40,32.00
2017-04-30 22:00, 1.30,6.1,2.05,105.40,32.00
2017-04-30 23:00, 1.38,7.4,2.34,100.40,31.00
2017-05-01 00:00, 1.41,6.3,2.22,97.40,32.00
2017-05-01 01:00, 1.46,5.7,2.21,97.40,30.00
2017-05-01 02:00, 1.39,5.9,2.16,97.40,32.00
2017-05-01 03:00, 1.49,6.3,2.07,98.40,31.00
2017-05-01 04:00, 1.56,5.7,2.51,98.40,32.00
2017-05-01 05:00, 1.35,5.9,1.87,102.40,30.00
2017-05-01 06:00, 1.48,6.3,2.13,102.40,31.00
2017-05-01 07:00, 1.42,5.7,2.65,98.40,29.00
2017-05-01 08:00, 1.40,6.3,2.32,107.40,33.00
2017-05-01 09:00, 1.36,5.9,2.23,101.40,33.00
2017-05-01 10:00, 1.27,6.1,2.16,96.40,34.00
2017-05-01 11:00, 1.34,6.7,2.17,98.40,32.00
2017-05-01 12:00, 1.43,5.4,2.76,94.40,33.00
2017-05-01 13:00, 1.57,6.1,2.61,99.40,30.00
2017-05-01 14:00, 1.51,6.3,2.41,96.40,32.00
2017-05-01 15:00, 1.59,5.9,3.18,98.40,34.00
2017-05-01 16:00, 1.58,5.6,2.24,100.40,31.00
2017-05-01 17:00, 1.54,5.9,2.29,100.40,32.00
2017-05-01 18:00, 1.54,5.4,2.49,100.40,30.00
2017-05-01 19:00, 1.52,5.7,2.37,99.40,32.00
2017-05-01 20:00, 1.39,6.1,2.06,103.40,33.00
2017-05-01 21:00, 1.37,6.3,1.90,102.40,35.00
2017-05-01 22:00, 1.37,8.0,2.30,99.40,32.00
2017-05-01 23:00, 1.36,6.7,2.20,101.40,35.00
2017-05-02 00:00, 1.39,6.7,2.37,96.40,31.00
2017-05-02 01:00, 1.39,7.1,2.34,93.40,32.00
2017-05-02 02:00, 1.52,6.5,2.78,92.40,28.00
2017-05-02 03:00, 1.62,6.1,2.53,97.40,30.00
2017-05-02 04:00, 1.44,5.3,2.73,97.40,31.00
2017-05-02 05:00, 1.53,6.1,2.62,96.40,31.00
2017-05-02 06:00, 1.55,6.3,2.70,95.40,30.00
2017-05-02 07:00, 1.40,6.3,2.24,97.40,31.00
2017-05-02 08:00, 1.50,5.7,2.71,96.40,29.00
2017-05-02 09:00, 1.50,6.9,2.39,95.40,29.00
2017-05-02 10:00, 1.42,7.4,2.26,95.40,30.00
2017-05-02 11:00, 1.47,6.1,2.44,93.40,31.00
2017-05-02 12:00, 1.50,6.5,2.39,94.40,30.00
2017-05-02 13:00, 1.40,7.4,2.26,91.40,32.00
2017-05-02 14:00, 1.47,5.7,2.19,92.40,30.00
2017-05-02 15:00, 1.43,5.9,2.24,96.40,29.00
2017-05-02 16:00, 1.45,6.1,2.78,96.40,31.00
2017-05-02 17:00, 1.37,6.7,2.07,99.40,30.00
2017-05-02 18:00, 1.32,6.3,2.36,100.40,34.00
2017-05-02 19:00, 1.36,6.1,2.03,98.40,30.00
2017-05-02 20:00, 1.29,6.3,2.07,98.40,30.00
2017-05-02 21:00, 1.32,6.1,2.17,98.40,31.00
2017-05-02 22:00, 1.20,6.9,1.95,102.40,32.00
2017-05-02 23:00, 1.21,6.7,2.12,98.40,31.00
2017-05-03 00:00, 1.26,5.9,1.92,98.40,31.00
2017-05-03 01:00, 1.21,6.7,2.33,97.40,32.00
2017-05-03 02:00, 1.29,7.4,2.13,96.40,30.00
2017-05-03 03:00, 1.18,5.1,1.88,98.40,32.00
2017-05-03 04:00, 1.19,7.1,2.07,95.40,34.00
2017-05-03 05:00, 1.24,6.9,1.83,94.40,30.00
2017-05-03 06:00, 1.15,7.1,2.34,95.40,33.00
2017-05-03 07:00, 1.20,7.4,1.95,99.40,30.00
2017-05-03 08:00, 1.10,6.1,1.59,97.40,32.00
2017-05-03 09:00, 1.09,5.4,1.62,99.40,31.00
2017-05-03 10:00, 1.02,7.4,1.62,96.40,32.00
2017-05-03 11:00, 1.02,6.1,1.85,99.40,33.00
2017-05-03 12:00, 0.98,7.1,1.84,98.40,34.00
2017-05-03 13:00, 0.97,7.4,1.65,98.40,33.00
2017-05-03 14:00, 0.96,7.4,1.51,99.40,33.00
2017-05-03 15:00, 0.98,6.7,1.77,96.40,32.00
2017-05-03 16:00, 0.97,7.7,1.55,99.40,34.00
2017-05-03 17:00, 0.96,6.9,1.54,98.40,32.00
2017-05-03 18:00, 1.01,7.4,1.69,95.40,32.00
2017-05-03 19:00, 0.91,6.7,1.29,97.40,35.00
2017-05-03 20:00, 0.96,7.7,1.37,96.40,33.00
2017-05-03 21:00, 0.98,7.4,1.62,97.40,31.00
2017-05-03 22:00, 1.06,7.7,1.49,100.40,38.00
2017-05-03 23:00, 1.07,7.7,1.80,96.40,33.00
2017-05-04 00:00, 1.04,6.5,1.64,93.40,34.00
2017-05-04 01:00, 1.09,5.0,1.73,98.40,32.00
2017-05-04 02:00, 1.08,8.0,1.89,97.40,33.00
2017-05-04 03:00, 1.08,4.8,1.78,103.40,34.00
2017-05-04 04:00, 1.09,5.4,1.62,99.40,33.00
2017-05-04 05:00, 1.06,4.8,1.67,97.40,32.00
2017-05-04 06:00, 1.08,5.1,1.79,95.40,33.00
2017-05-04 07:00, 1.12,4.4,1.64,99.40,33.00
2017-05-04 08:00, 1.15,5.3,2.09,100.40,30.00
2017-05-04 09:00, 1.12,5.9,2.02,98.40,29.00
2017-05-04 10:00, 1.07,5.6,2.23,102.40,30.00
2017-05-04 11:00, 1.09,5.6,2.45,102.40,32.00
2017-05-04 12:00, 1.10,5.4,1.89,99.40,29.00
2017-05-04 13:00, 1.09,5.1,2.00,101.40,34.00
2017-05-04 14:00, 1.12,5.6,1.78,98.40,32.00
2017-05-04 15:00, 1.12,5.3,1.98,99.40,33.00
2017-05-04 16:00, 1.14,5.7,1.92,101.40,30.00
2017-05-04 17:00, 1.17,5.7,1.92,102.40,31.00
2017-05-04 18:00, 1.11,5.9,2.09,102.40,33.00
2017-05-04 19:00, 1.08,5.4,1.79,103.40,33.00
2017-05-04 20:00, 1.09,5.4,1.91,106.40,31.00
2017-05-04 21:00, 1.16,5.7,1.83,107.40,31.00
2017-05-04 22:00, 1.07,5.9,1.74,103.40,36.00
2017-05-04 23:00, 1.06,5.6,2.08,106.40,32.00
2017-05-05 00:00, 1.10,5.9,1.89,106.40,31.00
2017-05-05 01:00, 1.11,5.6,1.61,103.40,31.00
2017-05-05 02:00, 1.04,5.6,1.94,105.40,35.00
2017-05-05 03:00, 1.07,5.3,1.71,102.40,35.00
2017-05-05 04:00, 1.16,5.0,1.97,101.40,32.00
2017-05-05 05:00, 1.22,5.0,1.90,102.40,33.00
2017-05-05 06:00, 1.09,5.7,1.97,102.40,33.00
2017-05-05 07:00, 1.17,5.3,2.07,106.40,33.00
2017-05-05 08:00, 1.04,5.0,1.67,103.40,32.00
2017-05-05 09:00, 1.10,5.3,1.56,108.40,32.00
2017-05-05 10:00, 1.08,5.9,1.87,105.40,34.00
2017-05-05 11:00, 1.11,5.4,1.79,103.40,32.00
2017-05-05 12:00, 1.09,5.4,1.85,108.40,31.00
2017-05-05 13:00, 1.18,5.6,1.97,103.40,32.00
2017-05-05 14:00, 1.08,5.9,2.03,108.40,35.00
2017-05-05 15:00, 1.15,5.9,2.07,103.40,32.00
2017-05-05 16:00, 1.06,5.4,1.59,106.40,33.00
2017-05-05 17:00, 1.14,5.6,2.02,107.40,34.00
2017-05-05 18:00, 1.10,5.6,1.85,108.40,33.00
2017-05-05 19:00, 1.12,5.6,2.14,106.40,32.00
2017-05-05 20:00, 1.17,5.6,1.79,104.40,33.00
2017-05-05 21:00, 1.15,5.6,1.86,107.40,36.00
2017-05-05 22:00, 1.17,5.4,1.79,101.40,32.00
2017-05-05 23:00, 1.19,5.6,1.91,103.40,35.00
2017-05-06 00:00, 1.12,5.6,1.75,100.40,33.00
2017-05-06 01:00, 1.18,5.9,2.07,99.40,33.00
2017-05-06 02:00, 1.13,5.9,1.78,103.40,34.00
2017-05-06 03:00, 1.16,5.6,1.96,100.40,33.00
2017-05-06 04:00, 1.20,5.7,1.98,102.40,33.00
2017-05-06 05:00, 1.19,5.9,1.82,104.40,34.00
2017-05-06 06:00, 1.21,5.3,2.05,104.40,32.00
2017-05-06 07:00, 1.08,5.1,1.64,105.40,32.00
2017-05-06 08:00, 1.15,5.4,1.65,106.40,31.00
2017-05-06 09:00, 1.13,5.4,1.79,109.40,32.00
2017-05-06 10:00, 1.07,5.6,1.74,101.40,34.00
2017-05-06 11:00, 1.16,5.1,2.19,106.40,31.00
2017-05-06 12:00, 1.14,5.6,2.13,108.40,32.00
2017-05-06 13:00, 1.20,5.3,1.74,111.40,32.00
2017-05-06 14:00, 1.20,5.6,1.84,112.40,33.00
2017-05-06 15:00, 1.20,6.1,1.93,108.40,33.00
2017-05-06 16:00, 1.21,5.9,1.91,111.40,35.00
2017-05-06 17:00, 1.29,5.9,2.12,107.40,30.00
2017-05-06 18:00, 1.18,5.1,2.09,109.40,33.00
2017-05-06 19:00, 1.12,5.3,1.83,107.40,35.00
2017-05-06 20:00, 1.20,5.6,2.25,109.40,35.00
2017-05-06 21:00, 1.19,5.9,1.97,107.40,33.00
2017-05-06 22:00, 1.10,5.7,1.67,108.40,35.00
2017-05-06 23:00, 1.13,5.9,1.79,109.40,36.00
2017-05-07 00:00, 1.16,6.3,1.76,108.40,32.00
2017-05-07 01:00, 1.08,5.7,1.66,107.40,36.00
2017-05-07 02:00, 1.11,5.6,1.82,107.40,31.00
2017-05-07 03:00, 1.15,5.7,1.91,108.40,31.00
2017-05-07 04:00, 1.23,5.4,1.85,104.40,30.00
2017-05-07 05:00, 1.17,5.6,2.07,102.40,33.00
2017-05-07 06:00, 1.20,5.7,1.98,104.40,32.00
2017-05-07 07:00, 1.22,5.6,1.92,105.40,32.00
2017-05-07 08:00, 1.18,5.1,2.10,102.40,35.00
2017-05-07 09:00, 1.25,5.6,2.03,103.40,31.00
2017-05-07 10:00, 1.17,5.6,2.14,107.40,33.00
2017-05-07 11:00, 1.29,5.6,1.96,101.40,33.00
2017-05-07 12:00, 1.26,5.7,2.42,103.40,31.00
2017-05-07 13:00, 1.22,6.7,1.98,98.40,32.00
2017-05-07 14:00, 1.28,5.6,2.19,99.40,30.00
2017-05-07 15:00, 1.24,5.7,1.86,101.40,32.00
2017-05-07 16:00, 1.19,6.1,1.97,104.40,32.00
2017-05-07 17:00, 1.24,5.6,1.87,103.40,34.00
2017-05-07 18:00, 1.20,5.7,2.05,106.40,31.00
2017-05-07 19:00, 1.16,5.6,1.90,107.40,31.00
2017-05-07 20:00, 1.07,5.4,1.87,110.40,33.00
2017-05-07 21:00, 1.02,5.6,1.53,104.40,32.00
2017-05-07 22:00, 1.04,5.9,1.51,106.40,35.00
2017-05-07 23:00, 1.08,5.3,1.77,104.40,32.00
2017-05-08 00:00, 1.02,6.5,1.51,100.40,33.00
2017-05-08 01:00, 1.02,5.6,1.79,99.40,33.00
2017-05-08 02:00, 1.04,7.4,1.73,100.40,33.00
2017-05-08 03:00, 1.11,4.9,1.70,99.40,33.00
2017-05-08 04:00, 1.08,4.8,1.58,97.40,33.00
2017-05-08 05:00, 1.12,5.4,1.87,97.40,31.00
2017-05-08 06:00, 1.21,5.0,2.21,95.40,32.00
2017-05-08 07:00, 1.20,5.6,1.89,96.40,33.00
2017-05-08 08:00, 1.19,5.6,2.02,101.40,33.00
2017-05-08 09:00, 1.22,5.3,1.94,98.40,31.00
2017-05-08 10:00, 1.17,5.3,1.83,102.40,32.00
2017-05-08 11:00, 1.18,5.6,2.01,105.40,30.00
2017-05-08 12:00, 1.10,5.7,1.83,103.40,31.00
2017-05-08 13:00, 1.16,6.1,1.74,106.40,30.00
2017-05-08 14:00, 1.04,5.7,1.92,101.40,33.00
2017-05-08 15:00, 1.01,6.3,1.74,104.40,33.00
2017-05-08 16:00, 1.02,6.9,1.59,103.40,32.00
2017-05-08 17:00, 1.07,6.7,2.06,106.40,32.00
2017-05-08 18:00, 1.11,5.9,1.92,105.40,32.00
2017-05-08 19:00, 1.18,5.7,1.80,103.40,31.00
2017-05-08 20:00, 1.12,6.3,1.65,102.40,31.00
2017-05-08 21:00, 1.20,7.1,1.82,100.40,30.00
2017-05-08 22:00, 1.17,7.4,2.05,101.40,31.00
2017-05-08 23:00, 1.24,7.7,1.97,100.40,29.00
2017-05-09 00:00, 1.09,7.7,2.21,98.40,32.00
2017-05-09 01:00, 1.21,7.7,1.83,102.40,32.00
2017-05-09 02:00, 1.11,6.1,2.15,103.40,30.00
2017-05-09 03:00, 1.20,7.4,2.12,100.40,29.00
2017-05-09 04:00, 1.17,7.7,2.01,100.40,31.00
2017-05-09 05:00, 1.11,6.1,1.89,104.40,32.00
2017-05-09 06:00, 1.19,6.3,2.03,101.40,29.00
2017-05-09 07:00, 1.23,6.3,1.99,107.40,30.00
2017-05-09 08:00, 1.16,5.9,1.95,106.40,31.00
2017-05-09 09:00, 1.13,7.7,1.81,104.40,32.00
2017-05-09 10:00, 1.25,7.4,2.02,106.40,29.00
2017-05-09 11:00, 1.20,6.1,1.83,106.40,32.00
2017-05-09 12:00, 1.17,7.4,2.07,108.40,31.00
2017-05-09 13:00, 1.14,6.9,2.06,109.40,33.00
2017-05-09 14:00, 1.21,5.6,1.98,108.40,31.00
2017-05-09 15:00, 1.18,6.1,1.91,112.40,32.00
2017-05-09 16:00, 1.12,7.7,2.23,112.40,32.00
2017-05-09 17:00, 1.14,5.9,1.72,107.40,32.00
2017-05-09 18:00, 1.22,5.9,1.90,116.40,33.00
2017-05-09 19:00, 1.39,4.7,2.26,115.40,32.00
2017-05-09 20:00, 1.48,5.9,2.29,116.40,31.00
2017-05-09 21:00, 1.40,5.4,2.09,118.40,30.00
2017-05-09 22:00, 1.22,5.7,1.64,117.40,33.00
2017-05-09 23:00, 1.14,5.9,1.91,115.40,34.00
2017-05-10 00:00, 1.10,7.4,1.60,114.40,34.00
2017-05-10 01:00, 1.13,6.1,1.83,110.40,33.00
2017-05-10 02:00, 1.16,5.6,2.04,110.40,32.00
2017-05-10 03:00, 1.23,6.3,2.07,109.40,32.00
2017-05-10 04:00, 1.14,5.4,2.16,109.40,36.00
2017-05-10 05:00, 1.14,6.3,2.06,105.40,35.00
2017-05-10 06:00, 1.32,5.7,2.20,104.40,32.00
2017-05-10 07:00, 1.36,6.1,2.12,101.40,29.00
2017-05-10 08:00, 1.27,5.9,2.49,100.40,30.00
2017-05-10 09:00, 1.26,5.7,1.99,103.40,28.00
2017-05-10 10:00, 1.20,6.1,1.86,100.40,28.00
2017-05-10 11:00, 1.27,6.3,2.10,105.40,26.00
2017-05-10 12:00, 1.20,5.9,1.93,108.40,28.00
2017-05-10 13:00, 1.23,6.3,2.16,104.40,28.00
2017-05-10 14:00, 1.03,5.7,1.83,107.40,32.00
2017-05-10 15:00, 1.09,5.9,1.77,106.40,29.00
2017-05-10 16:00, 1.11,5.9,1.90,107.40,28.00
2017-05-10 17:00, 1.12,5.9,1.81,103.40,30.00
2017-05-10 18:00, 0.91,6.1,1.62,106.40,33.00
2017-05-10 19:00, 1.03,5.9,1.86,109.40,33.00
2017-05-10 20:00, 1.03,5.7,1.58,109.40,31.00
2017-05-10 21:00, 1.06,5.9,2.12,109.40,32.00
2017-05-10 22:00, 1.00,6.3,1.52,113.40,32.00
2017-05-10 23:00, 1.04,5.9,2.17,115.40,32.00
2017-05-11 00:00, 0.92,6.3,1.42,115.40,35.00
2017-05-11 01:00, 1.00,5.9,1.45,115.40,34.00
2017-05-11 02:00, 0.99,5.9,1.73,115.40,31.00
2017-05-11 03:00, 0.88,5.6,1.49,112.40,34.00
2017-05-11 04:00, 0.86,5.9,1.44,114.40,32.00
2017-05-11 05:00, 0.78,6.1,1.42,114.40,34.00
2017-05-11 06:00, 0.82,5.7,1.17,114.40,34.00
2017-05-11 07:00, 0.86,7.7,1.39,111.40,32.00
2017-05-11 08:00, 0.80,8.0,1.50,112.40,34.00
2017-05-11 09:00, 0.91,7.7,1.52,115.40,32.00
2017-05-11 10:00, 0.80,5.7,1.15,118.40,35.00
2017-05-11 11:00, 0.88,7.4,1.53,102.40,39.00
2017-05-11 12:00, 0.83,5.6,1.69,105.40,36.00
2017-05-11 13:00, 0.69,7.1,1.19,106.40,34.00
2017-05-11 14:00, 0.56,7.7,0.87,114.40,37.00
2017-05-11 15:00, 0.59,7.4,1.18,106.40,32.00
2017-05-11 16:00, 0.57,7.1,0.90,108.40,34.00
2017-05-11 17:00, 0.57,7.7,0.90,103.40,37.00
2017-05-11 18:00, 0.62,5.9,0.91,107.40,38.00
2017-05-11 19:00, 0.68,6.9,1.14,102.40,34.00
2017-05-11 20:00, 0.67,7.1,1.02,95.40,35.00
2017-05-11 21:00, 0.73,6.9,1.16,96.40,33.00
2017-05-11 22:00, 0.77,5.7,1.17,96.40,32.00
2017-05-11 23:00, 0.86,5.7,1.26,98.40,30.00
2017-05-12 00:00, 0.83,5.4,1.48,95.40,30.00
2017-05-12 01:00, 0.85,5.9,1.40,98.40,30.00
2017-05-12 02:00, 0.81,5.4,1.31,95.40,30.00
2017-05-12 03:00, 0.74,6.7,1.13,94.40,31.00
2017-05-12 04:00, 0.82,5.6,1.13,95.40,29.00
2017-05-12 05:00, 0.74,6.1,1.20,94.40,32.00
2017-05-12 06:00, 0.71,5.7,1.17,94.40,33.00
2017-05-12 07:00, 0.70,5.7,1.10,94.40,32.00
2017-05-12 08:00, 0.69,5.9,1.02,95.40,32.00
2017-05-12 09:00, 0.65,7.1,1.08,99.40,34.00
2017-05-12 10:00, 0.56,4.9,1.03,102.40,35.00
2017-05-12 11:00, 0.54,7.7,0.90,102.40,36.00
2017-05-12 12:00, 0.53,7.1,0.83,105.40,38.00
2017-05-12 13:00, 0.50,8.3,0.74,109.40,39.00
2017-05-12 14:00, 0.45,8.3,0.75,107.40,40.00
2017-05-12 15:00, 0.43,5.6,0.74,113.40,42.00
2017-05-12 16:00, 0.48,8.3,0.68,106.40,42.00
2017-05-12 17:00, 0.47,8.3,0.79,108.40,38.00
2017-05-12 18:00, 0.42,7.4,0.67,103.40,40.00
2017-05-12 19:00, 0.45,8.3,0.77,104.40,38.00
2017-05-12 20:00, 0.44,8.0,0.69,98.40,41.00
2017-05-12 21:00, 0.47,7.1,0.73,98.40,40.00
2017-05-12 22:00, 0.50,7.4,0.83,96.40,42.00
2017-05-12 23:00, 0.51,8.3,0.87,96.40,39.00
2017-05-13 00:00, 0.51,8.0,0.77,99.40,38.00
2017-05-13 01:00, 0.55,8.0,0.94,99.40,36.00
2017-05-13 02:00, 0.50,6.3,0.78,96.40,38.00
2017-05-13 03:00, 0.56,6.5,0.82,95.40,36.00
2017-05-13 04:00, 0.55,7.7,0.91,100.40,35.00
2017-05-13 05:00, 0.51,8.3,0.85,102.40,37.00
2017-05-13 06:00, 0.48,5.9,0.88,100.40,36.00